Andravida, Greece

11:31 AM EEST on May 22, 2018 (GMT +0300)
Andravida Air Base

Weather History for LGAD - April, 2013

Change the Weather History Date:

Monday, April 1, 2013

  Actual Average Record
Temperature  
Mean Temperature 58 °F -  
Max Temperature 68 °F 64 °F 78 °F (2009)
Min Temperature 49 °F 47 °F 37 °F (1997)
Degree Days  
Heating Degree Days 6    
Growing Degree Days 8 (Base 50)    
Moisture  
Dew Point 51 °F    
Average Humidity 78    
Maximum Humidity 94    
Minimum Humidity 36    
Precipitation  
Precipitation 0.00 in - - ()
Sea Level Pressure  
Sea Level Pressure 29.88 in    
Wind  
Wind Speed 3 mph ()    
Max Wind Speed 12 mph    
Max Gust Speed -    
Visibility 6.1 miles    
Events      
Averages and records for this station are not official NWS values.
T = Trace of Precipitation, MM = Missing Value Source: Averaged Metar Reports

Daily Weather History Graph

Daily Weather History Graph

Search for Another Location

Airport or City:

Astronomy

Apr. 01, 2013 Rise Set
Actual Time 7:20 AM EEST 7:57 PM EEST
Civil Twilight 6:53 AM EEST 8:24 PM EEST
Nautical Twilight 6:22 AM EEST 8:55 PM EEST
Astronomical Twilight 5:50 AM EEST 9:27 PM EEST
Moon 12:42 AM EEST (4/1) 10:52 AM EEST (4/1)
Length of Visible Light 13h 30m
Length of Day
12h 37m
Waning Gibbous, 70% of the Moon is Illuminated
Apr 1
Waning Gibbous
Apr 3
Last Quarter
Apr 10
New
Apr 18
First Quarter
Apr 25
Full

Hourly Weather History & Observations

Time (EEST) Temp. Dew Point Humidity Pressure Visibility Wind Dir Wind Speed Gust Speed Precip Events Conditions
12:20 AM 53.6 °F 50.0 °F 88% 29.83 in 6.2 mi Calm Calm - N/A   Partly Cloudy
12:50 AM 51.8 °F 50.0 °F 94% 29.83 in 6.2 mi Calm Calm - N/A   Partly Cloudy
1:20 AM 51.8 °F 48.2 °F 88% 29.86 in 6.2 mi Calm Calm - N/A   Partly Cloudy
1:50 AM 51.8 °F 50.0 °F 94% 29.86 in 6.2 mi Calm Calm - N/A   Partly Cloudy
2:50 AM 51.8 °F 48.2 °F 88% 29.86 in 6.2 mi Calm Calm - N/A   Partly Cloudy
3:00 AM 51 °F 49 °F 90% 29.87 in 6 mi Calm Calm - -   Scattered Clouds
3:20 AM 50.0 °F 48.2 °F 94% 29.86 in 6.2 mi Calm Calm - N/A   Partly Cloudy
3:50 AM 50.0 °F 48.2 °F 94% 29.86 in 6.2 mi Calm Calm - N/A   Partly Cloudy
4:20 AM 50.0 °F 48.2 °F 94% 29.86 in 6.2 mi Calm Calm - N/A   Partly Cloudy
4:50 AM 50.0 °F 48.2 °F 94% 29.83 in 6.2 mi Calm Calm - N/A   Partly Cloudy
5:20 AM 51.8 °F 48.2 °F 88% 29.83 in 6.2 mi Calm Calm - N/A   Partly Cloudy
5:50 AM 50.0 °F 48.2 °F 94% 29.83 in 6.2 mi Calm Calm - N/A   Partly Cloudy
6:20 AM 50.0 °F 48.2 °F 94% 29.83 in 6.2 mi Calm Calm - N/A   Partly Cloudy
6:50 AM 50.0 °F 48.2 °F 94% 29.83 in 6.2 mi Calm Calm - N/A   Partly Cloudy
7:20 AM 50.0 °F 48.2 °F 94% 29.83 in 5.0 mi Calm Calm - N/A   Partly Cloudy
7:50 AM 50.0 °F 48.2 °F 94% 29.86 in 5.6 mi Calm Calm - N/A   Partly Cloudy
8:20 AM 50.0 °F 48.2 °F 94% 29.86 in 6.2 mi Calm Calm - N/A   Partly Cloudy
8:50 AM 53.6 °F 51.8 °F 94% 29.86 in 6.2 mi SSE 4.6 mph - N/A   Partly Cloudy
9:00 AM 54 °F 51 °F 87% 29.87 in 6 mi SSE 4.6 mph - -   Scattered Clouds
9:50 AM 59.0 °F 55.4 °F 88% 29.86 in 6.2 mi SSE 5.8 mph - N/A   Partly Cloudy
10:20 AM 62.6 °F 53.6 °F 72% 29.89 in 6.2 mi South 5.8 mph - N/A   Partly Cloudy
10:50 AM 62.6 °F 51.8 °F 68% 29.89 in 6.2 mi SSW 8.1 mph - N/A   Partly Cloudy
11:20 AM 62.6 °F 51.8 °F 68% 29.89 in 6.2 mi SSW 8.1 mph - N/A   Partly Cloudy
11:50 AM 62.6 °F 51.8 °F 68% 29.89 in 6.2 mi SSW 8.1 mph - N/A   Partly Cloudy
12:20 PM 64.4 °F 51.8 °F 64% 29.92 in 6.2 mi South 10.4 mph - N/A   Partly Cloudy
12:50 PM 64.4 °F 51.8 °F 64% 29.92 in 6.2 mi South 10.4 mph - N/A   Partly Cloudy
1:20 PM 64.4 °F 50.0 °F 59% 29.89 in 6.2 mi South 9.2 mph - N/A   Partly Cloudy
1:50 PM 66.2 °F 50.0 °F 56% 29.89 in 6.2 mi South 9.2 mph - N/A   Partly Cloudy
2:20 PM 66.2 °F 50.0 °F 56% 29.89 in 6.2 mi South 9.2 mph - N/A   Partly Cloudy
2:50 PM 68.0 °F 48.2 °F 49% 29.89 in 6.2 mi SSW 8.1 mph - N/A   Partly Cloudy
3:00 PM 68 °F 47 °F 36% 29.89 in 6 mi SSW 8.1 mph - -   Scattered Clouds
3:20 PM 68.0 °F 48.2 °F 49% 29.89 in 6.2 mi SSW 8.1 mph - N/A   Partly Cloudy
3:50 PM 66.2 °F 51.8 °F 60% 29.89 in 6.2 mi SSW 8.1 mph - N/A   Partly Cloudy
4:50 PM 64.4 °F 53.6 °F 68% 29.89 in 6.2 mi SSW 11.5 mph - N/A   Partly Cloudy
5:20 PM 64.4 °F 53.6 °F 68% 29.89 in 6.2 mi SSW 11.5 mph - N/A   Partly Cloudy
5:50 PM 64.4 °F 53.6 °F 68% 29.89 in 6.2 mi SSW 8.1 mph - N/A   Partly Cloudy
6:20 PM 62.6 °F 53.6 °F 72% 29.89 in 6.2 mi South 6.9 mph - N/A   Scattered Clouds
6:50 PM 60.8 °F 53.6 °F 77% 29.89 in 6.2 mi South 6.9 mph - N/A   Scattered Clouds
7:20 PM 60.8 °F 53.6 °F 77% 29.89 in 6.2 mi South 5.8 mph - N/A   Mostly Cloudy
7:50 PM 59.0 °F 51.8 °F 77% 29.89 in 6.2 mi South 4.6 mph - N/A   Mostly Cloudy
8:20 PM 59.0 °F 51.8 °F 77% 29.89 in 6.2 mi South 4.6 mph - N/A   Mostly Cloudy
8:50 PM 59.0 °F 53.6 °F 82% 29.89 in 6.2 mi SE 8.1 mph - N/A   Scattered Clouds
9:00 PM 58 °F 53 °F 78% 29.91 in 6 mi SE 8.1 mph - -   Scattered Clouds
9:20 PM 59.0 °F 53.6 °F 82% 29.89 in 6.2 mi SE 8.1 mph - N/A   Scattered Clouds
10:20 PM 57.2 °F 51.8 °F 82% 29.92 in 6.2 mi SSE 5.8 mph - N/A   Scattered Clouds
10:50 PM 57.2 °F 51.8 °F 82% 29.89 in 6.2 mi SSE 5.8 mph - N/A   Scattered Clouds
11:20 PM 57.2 °F 51.8 °F 82% 29.89 in 6.2 mi SSE 5.8 mph - N/A   Scattered Clouds
11:50 PM 57.2 °F 51.8 °F 82% 29.89 in 6.2 mi SE 5.8 mph - N/A   Scattered Clouds